Regional Weather Roundup
Issued by NWS Northern Indiana

Home | Current Version | Previous Version | Text Only | Print | Product List | Glossary Off
Versions: 1 2 3 4 5 6 7 8 9 10 11 12 13 14 15 16 17 18 19 20 21 22 23 24 25 26 27 28 29 30 31 32 33 34 35 36 37 38 39 40 41 42 43 44 45 46 47 48 49 50

000
ASUS43 KIWX 290710
RWRIWX

KIWX WEATHER ROUNDUP
NATIONAL WEATHER SERVICE NORTHERN INDIANA
300 AM EDT MON AUG 29 2016

NOTE: "FAIR" INDICATES FEW OR NO CLOUDS BELOW 12,000 FEET WITH NO
SIGNIFICANT WEATHER AND/OR OBSTRUCTIONS TO VISIBILITY.

* THESE STATIONS ARE NOT UNDER NWS QUALITY CONTROL. THEY ALSO MAY NOT
  REPORT WEATHER SUCH AS PRECIPITATION OR FOG.

INZ001>027-290800-
NORTHERN INDIANA

CITY           SKY/WX    TMP DP  RH WIND       PRES   REMARKS
GARY*          CLEAR     70  70 100 CALM      30.21S
VALPARAISO     CLOUDY    67  66  97 NE3       30.21F
MICHIGAN CITY* CLEAR     66  66 100 MISG      30.22F FOG
LAPORTE*       PTCLDY   N/A N/A N/A CALM      30.22F HAZE
KNOX*          CLOUDY    66  59  77 CALM      30.21F VSB 3/4
SOUTH BEND     PTCLDY    69  68  96 CALM      30.23S
GOSHEN         FOG       66  64  93 N5        30.22F VSB 1
MONTICELLO*    PTCLDY    69  65  85 CALM      30.19F
LOGANSPORT*    CLEAR     66  66 100 N6        30.20S
ROCHESTER*     CLEAR     70  70 100 CALM      30.21F
WARSAW*        FOG       66  66 100 CALM      30.22F VSB 1/2
ANGOLA*        MOCLDY    68  59  73 CALM      30.23F
FORT WAYNE     PTCLDY    68  65  90 N5        30.21F
HUNTINGTON*    CLEAR     66  65  96 CALM      30.20F
PERU/GRISSOM   PTCLDY    68  68 100 NE5       30.18F
MARION*        CLEAR     67  67  99 CALM      30.20F FOG

$$
INZ028>050-290800-
CENTRAL INDIANA

CITY           SKY/WX    TMP DP  RH WIND       PRES   REMARKS
LAFAYETTE      LGT RAIN  71  69  93 SW7       30.19R
KOKOMO*        CLEAR     68  66  94 NE3       30.19S
MUNCIE*        PTCLDY    68  66  93 NE3       30.20F FOG
INDIANAPOLIS   PTCLDY    73  68  84 NE5       30.17F

$$
MIZ043>046-050>051-056>058-064>065-071>073-077>080-290800-
SOUTHWEST LOWER MICHIGAN

CITY           SKY/WX    TMP DP  RH WIND       PRES   REMARKS
BATTLE CREEK   CLEAR     66  66 100 N5        30.24F
BENTON HARBOR  PTCLDY    66  63  90 CALM      30.21F
COLDWATER*     FOG       69  69 100 CALM      30.24S VSB 1/4
HILLSDALE*     CLEAR     67  66  96 CALM      30.24F FOG
HOLLAND        CLEAR     64  63  96 CALM      30.23F
GRAND RAPIDS   CLEAR     67  64  90 CALM      30.24S
KALAMAZOO      FOG       67  65  93 CALM      30.23F VSB 1/4
STURGIS*       MOCLDY    68  67  94 CALM      30.23S FOG
THREE RIVERS*  FOG       70  70 100 CALM      30.23F VSB<1/4

$$
OHZ001>008-015>018-024>025-290800-
NORTHWEST OHIO

CITY           SKY/WX    TMP DP  RH WIND       PRES   REMARKS
WAUSEON*       MOCLDY    70  68  94 N3        30.22F FOG
DEFIANCE       CLEAR     68  66  93 CALM      30.22F
FINDLAY        MOCLDY    73  67  81 CALM      30.21S
TOLEDO EXPRESS CLEAR     71  71 100 CALM      30.21F
TOLEDO METCALF PTCLDY    74  73  97 CALM      30.22S
LIMA           CLEAR     67  67 100 NE5       30.22S

$$
AND FOR LAKE MICHIGAN COASTAL AND OPEN LAKE BUOY OBSERVATIONS

STATION/POSITION TEMP    WIND        PRES    VSBY  WAVE
                 AIR SEA DIR/SP/G                  HT/PER
                 (F)     (DEG/KT/KT) (MB)    (MI)  (FT/S)
CALUMET HARBOR    73     100/  5/  7 1022.6F
MICHIGAN CITY     71      50/  4/  4   N/A
BURNS HARBOR      71      80/  3/  6 1024.0R
SAINT JOSEPH      68      CALM  /  1 1023.0F
SOUTH LAKE BUOY   73 75   80/  6/  6 1022.9F         1
4 MI NW BRIDGMAN  72 75   80/  4/  6 1022.9F         1/ 3
MICHIGAN CITY     72 75  140/  2/  4   N/A           2/ 4

$$
&&




USA.gov is the U.S. government's official web portal to all federal, state and local government web resources and services.